www.pogodaiklimat.ru

Погода и климат >> Архив погоды >> Антарктида >> Bernardo o`Higgins


ПОГОДА в Bernardo o`Higgins

  • Прогноз погоды в Bernardo o`Higgins
  • Монитор погоды в Bernardo o`Higgins
  • Климат города

АРХИВ ПОГОДЫ в Bernardo o`Higgins

Время (UTC), дата Ветер
(напр.,м/с)
 
Видим.   Явления Облачность Т
(С)
Тd
(С)
f
(%)
Тe
(С)
Тes
(С)
Комфортность P
(гПа)
Po
(гПа)
Тmin
(С)
Tmax
(С)
R
(мм)
R24
(мм)
S
(см)
21 10.07 З 9 н/о {туман} 10/0
[]
-2.1 -3.3 91 -11 -11 970.5 969.0
00 11.07 СЗ 7 н/о {туман} 9/0
[]
-1.8 -3.2 90 -10 -10 968.4 966.9 -1.0
03 11.07 З 13 н/о 10/0
[]
-3.0 -5.6 82 -13 -13 967.5 966.0
06 11.07 З 12 н/о 9/0
[]
-3.1 -6.8 76 -13 -13 968.1 966.6
09 11.07 З 13 н/о 10/0
[]
-4.6 -9.0 71 -15 -15 967.1 965.6
12 11.07 З 11 н/о 9/0
[]
-5.8 -10.0 72 -16 -16 968.4 966.9 -5.8
15 11.07 З 13 10 км 9/9 1500 м
[Cu hum]
-6.7 -11.6 68 -18 -18 968.9 967.4
18 11.07 З 9 10 км 10/10 1200 м
[St]
-7.0 -11.3 71 -17 -17 970.0 968.5
21 11.07 Ю 4 н/о 10/0
[]
-7.6 -12.6 67 -14 -14 971.1 969.6
00 12.07 ЮВ 15 н/о сильный позёмок 9/0
[]
-14.4 -16.9 81 -28 -28 971.6 970.7 -6.0 1
03 12.07 Ю 21 н/о сильный позёмок {метель} 10/0
[]
-18.6 -22.2 73 -36 -36 опасность
обморожения
974.7 973.2
06 12.07 Ю 19 н/о сильный позёмок {метель} 9/0
[]
-18.4 -22.9 68 -35 -35 опасность
обморожения
977.3 975.8 2
09 12.07 Ю 14 н/о сильный позёмок {метель} 10/0
[]
-15.4 -21.1 62 -29 -29 980.6 979.1
12 12.07 ЮЗ 15 н/о {метель} 9/0
[]
-13.8 -22.8 47 -27 -27 983.9 982.4 -19.0 3
15 12.07 Ю 8 10 км {метель} 10/10 1200 м
[St]
-13.5 -22.4 47 -24 -24 985.1 983.6
18 12.07 Ю 9 2300 м позёмок {метель} 10/10 900 м
[Sc diur, vesp]
-14.7 -18.5 73 -26 -26 986.3 984.8
21 12.07 ЮЗ 3 н/о {метель} 10/0
[]
-12.5 -18.3 62 -19 -19 987.5 986.0
00 13.07 СЗ 7 н/о {метель} 9/0
[]
-13.0 -16.8 73 -22 -22 989.1 987.6 -12.5
03 13.07 СЗ 3 н/о слабый снег 10/0
[]
-14.5 -17.7 77 -21 -21 988.4 986.9
06 13.07 ЮЗ 3 н/о слабый снег 9/0
[]
-12.7 -14.6 86 -19 -19 984.1 982.6 1
09 13.07 ЮЗ 4 н/о слабый снег 10/0
[]
-10.0 -12.7 81 -17 -17 981.2 979.7
12 13.07 Ю 21 н/о сильный позёмок {снег} 9/0
[]
-15.5 -19.1 74 -32 -32 опасность
обморожения
981.6 980.1 -15.5 1
15 13.07 Ю 24 500 м сильный позёмок {метель} 9/9 1200 м
[Cu hum]
-15.0 -19.7 67 -32 -32 опасность
обморожения
982.0 980.5
18 13.07 Ю 27 300 м сильный позёмок {метель} 9/0
[]
-15.1 -19.3 70 -32 -32 опасность
обморожения
983.9 982.4
21 13.07 Ю 25 н/о сильный позёмок {метель} 10/0
[]
-15.9 -19.2 76 -33 -33 опасность
обморожения
987.0 985.5
00 14.07 Ю 22 н/о сильный позёмок {метель} 9/0
[]
-15.4 -19.1 73 -32 -32 опасность
обморожения
989.5 988.0 -13.8
03 14.07 Ю 22 н/о сильный позёмок {метель} 10/0
[]
-16.5 -19.9 75 -33 -33 опасность
обморожения
990.6 989.1
06 14.07 Ю 23 н/о сильный позёмок {метель} 9/0
[]
-16.1 -21.2 65 -33 -33 опасность
обморожения
991.9 990.4
09 14.07 ЮЗ 13 н/о {метель} 10/0
[]
-10.9 -22.4 38 -23 -23 992.9 991.4
12 14.07 ЮЗ 14 н/о {метель} 9/0
[]
-10.9 -20.6 45 -23 -23 993.7 992.2 -17.7
15 14.07 З 4 10 км 9/9 1500 м
[Cu hum]
-9.4 -14.1 69 -16 -16 995.0 993.5
18 14.07 В 2 10 км 10/10 1500 м
[Sc]
-9.4 -13.4 73 -14 -14 995.1 993.6
21 14.07 В 1 н/о слабый снег 10/0
[]
-8.8 -12.2 76 -11 -11 995.2 993.7
00 15.07 СВ 4 н/о слабый снег 9/0
[]
-11.3 -13.5 84 -18 -18 996.4 994.9 -8.8 2
03 15.07 В 2 н/о {снег} 10/0
[]
-10.9 -13.4 82 -16 -16 996.4 995.0
06 15.07 ЮЗ 5 н/о слабый снег 9/0
[]
-10.2 -12.0 87 -18 -18 996.3 994.8 2
09 15.07 ЮЗ 8 н/о {снег} 10/0
[]
-8.9 -10.9 85 -18 -18 995.4 993.9
12 15.07 ЮЗ 8 н/о 9/0
[]
-8.1 -9.9 87 -17 -17 994.9 993.4 -11.3 4
15 15.07 ЮЗ 8 10 км 10/10 1500 м
[St]
-7.2 -9.5 84 -16 -16 994.9 993.4
18 15.07 ЮЗ 7 10 км 10/10 1500 м
[St]
-7.3 -9.6 84 -16 -16 994.9 993.4
21 15.07 ЮЗ 7 н/о 10/0
[]
-6.9 -9.5 82 -15 -15 994.8 993.3
00 16.07 ЮЗ 5 н/о 9/0
[]
-6.2 -8.9 81 -14 -14 995.1 993.6 -6.2
03 16.07 ЮЗ 5 н/о 10/0
[]
-6.3 -9.2 80 -14 -14 995.0 993.5
06 16.07 ЮЗ 8 н/о 9/0
[]
-5.1 -8.4 78 -14 -14 995.0 993.5
09 16.07 ЮЗ 7 н/о 10/0
[]
-4.8 -8.5 75 -13 -13 995.0 993.5
12 16.07 ЮЗ 4 н/о 9/0
[]
-4.0 -8.3 72 -10 -10 996.8 995.3 -6.4
15 16.07 ЮЗ 4 10 км ясно -4.1 -7.6 77 -10 -10 998.7 997.2
18 16.07 ЮЗ 4 10 км ясно -3.8 -7.5 75 -10 -10 1000.1 998.6
21 16.07 СВ 2 н/о 10/0
[]
-5.1 -8.9 75 -8 -8 1001.6 1000.1
00 17.07 Ю 3 н/о 9/0
[]
-5.8 -10.3 70 -11 -11 1003.0 1001.5 -3.8
03 17.07 ЮЗ 4 н/о 10/0
[]
-4.7 -8.9 72 -11 -11 1003.7 1002.2
06 17.07 ЮЗ 4 н/о 9/0
[]
-4.4 -9.5 68 -11 -11 1004.7 1003.2
09 17.07 З 4 н/о 10/0
[]
-4.8 -8.9 73 -11 -11 1005.3 1003.8
12 17.07 ЮЗ 3 н/о 9/0
[]
-4.6 -10.5 63 -10 -10 1005.9 1004.4 -5.3
15 17.07 ЮЗ 4 10 км 1/1 1000 м
[St]
-4.1 -9.5 66 -10 -10 1006.7 1005.2

 

Местоположение метеостанции Bernardo o`Higgins (Антарктида): широта -63.31 долгота -57.90 высота над уровнем моря 10 м.

В архиве по умолчанию представлена погода в Bernardo o`Higgins за последнюю неделю. Архивные данные за месяц целиком и за предыдущие месяцы, начиная с января 2011 года, Вы можете получить, выбрав интересующий диапазон дат из раскрывающегося списка и нажав кнопку "Ввод!".


*Определитесь, кто Вы:
робот инопланетянин человек

Внимание! Время в таблицах - всемирное. Для получения местного времени необходимо прибавить поправку, которая в Bernardo o`Higgins равна 0 ч.

Смотрите также архив погоды в соседних городах и на ближайших метеорологических станциях:

Погода в Esperanza Base (Антарктида) (47 км)
Погода в Marambio Base (Антарктида) (118 км)
Погода в Carlini Base (Антарктида) (126 км)
Погода в Captain Arturo Prat Base (Антарктида) (127 км)
Погода в King Sejong (Антарктида) (130 км)
Погода в Great Wall (Антарктида) (134 км)
Погода в Bellingshausen (Антарктида) (134 км)
Погода в Dinamet-Uruguay (Антарктида) (134 км)
Погода в Frei Chi-Base (Антарктида) (137 км)
Погода в Juan Carlos Island (Антарктида) (145 км)

Пояснения к столбцам:

Ветер - указаны скорость ветра в м/с - средняя за 10 мин, порывы в срок и между сроками (в фигурных скобках) и направление, откуда дует ветер: С - северный, СВ - северо-восточный, В - восточный, ЮВ - юго-восточный, Ю - южный, ЮЗ - юго-западный, З - западный, СЗ - северо-западный.
Видимость - горизонтальная дальность видимости в метрах или километрах. При видимости от 1 до 10 км при отсутствии осадков обычно наблюдается дымка, при ухудшении видимости до 1 км и менее - туман. В сухую погоду видимость может ухудшаться дымом, пылью или мглою.
Явления - указаны атмосферные явления, наблюдавшиеся в срок или в последний час перед сроком; фигурными скобками обозначены явления, наблюдавшиеся между сроками (за 1-3 часа до срока); квадратными скобками обозначены град или гололедные отложения с указанием их диаметра в мм.
Облачность - указаны через наклонную черту общая и нижняя облачность в баллах и высота нижней границы облаков в метрах; квадратными скобками обозначены формы облаков: Ci - перистые, Cs - перисто-слоистые, Cc - перисто-кучевые, Ac - высококучевые, As - высокослоистые, Sc - слоисто-кучевые, Ns - слоисто-дождевые, Cu - кучевые, Cb - кучево-дождевые. Подробнее классификацию облаков см. в Атласе облаков (PDF).
T - Температура воздуха - температура, измеренная на высоте 2 м над землей.
Td - Температура точки росы - температура, при понижении до которой содержащийся в воздухе водяной пар достигнет насыщения.
f - Относительная влажность воздуха - влажноcть воздуха, измеренная на высоте 2 м над землей.
Te - Эффективная температура - температура, которую ощущает одетый по сезону человек в тени. Характеристика душности погоды. При расчете учитывается влияние влажности воздуха и скорости ветра на теплоощущения человека.
Tes - Эффективная температура на солнце - температура, которую ощущает человек, с поправкой на солнечный нагрев. Характеристика знойности погоды. Зависит от высоты солнца над горизонтом, облачности и скорости ветра. Ночью, в пасмурную погоду, а также при ветре 12 м/с и более поправка равна нулю.
P - Атмосферное давление - приведенное к уровню моря атмосферное давление.
Po - Атмосферное давление - измеренное на уровне метеостанции атмосферное давление.
Tmin - Минимальная температура - минимум температуры воздуха на высоте 2 м над землей.
Tmax - Максимальная температура - максимум температуры воздуха на высоте 2 м над землей.
R - Количество осадков - Количество выпавших осадков за период времени, мм. При наведении курсора мыши на число - период времени, за который выпало указанное количество осадков.
R24 - Количество осадков - Количество выпавших осадков за 24 часа, мм.
S - Снежный покров - Высота снежного покрова, см. При наведении курсора мыши на число - состояние снежного покрова и степень покрытия местности в баллах.